Location: Banksville Park
(38.5557°N, 75.1182°W)
Time: 18:15:21
(UTC+00:00)

SAR-Lupe-1 - Pass Details

Date: 17 January 2021
Orbit: 482 x 484 km, 98.2° (Epoch: 02 March)

Event Time Altitude Azimuth Distance (km) Brightness Sun altitude
Rises 10:03:06 0° 143° (SE) 2,537 8.3 -25.6°
Reaches altitude 10° 10:05:19 10° 131° (SE) 1,661 7.5 -25.2°
Maximum altitude 10:08:25 28° 71° (ENE) 927 6.0 -24.6°
Enters shadow 10:10:41 15° 19° (NNE) 1,372 6.4 -24.1°
